Time,TemperatureF,DewpointF,PressureIn,WindDirection,WindDirectionDegrees,WindSpeedMPH,WindSpeedGustMPH,Humidity,HourlyPrecipIn,Conditions,Clouds,dailyrainin,SoftwareType,DateUTC
2013-07-24 00:02:00,68.4,62.2,29.84,ENE,78,0.0,0.0,81,0.00,,,0.00,meteohub,2013-07-24 04:02:00,
2013-07-24 00:07:00,68.4,62.6,29.84,ENE,78,0.0,0.0,82,0.00,,,0.00,meteohub,2013-07-24 04:07:00,
2013-07-24 00:12:00,68.2,62.4,29.84,ENE,78,0.0,0.0,82,0.00,,,0.00,meteohub,2013-07-24 04:12:00,
2013-07-24 00:17:00,68.2,62.4,29.84,ENE,78,0.0,0.0,82,0.00,,,0.00,meteohub,2013-07-24 04:17:00,
2013-07-24 00:22:00,68.0,62.2,29.84,NNW,348,0.0,0.0,82,0.00,,,0.00,meteohub,2013-07-24 04:22:00,
2013-07-24 00:27:00,67.8,62.4,29.84,West,280,0.0,0.0,83,0.00,,,0.00,meteohub,2013-07-24 04:27:00,
2013-07-24 00:32:00,67.8,62.4,29.84,SE,145,0.0,0.0,83,0.00,,,0.00,meteohub,2013-07-24 04:32:00,
2013-07-24 00:37:00,67.8,62.8,29.84,SE,145,0.0,0.0,84,0.00,,,0.00,meteohub,2013-07-24 04:37:00,
2013-07-24 00:42:00,67.6,62.6,29.84,SE,145,0.0,0.0,84,0.00,,,0.00,meteohub,2013-07-24 04:42:00,
2013-07-24 00:47:00,67.6,62.6,29.84,SE,145,0.0,0.0,84,0.00,,,0.00,meteohub,2013-07-24 04:47:00,
2013-07-24 00:52:00,67.5,62.4,29.84,SE,145,0.0,0.0,84,0.00,,,0.00,meteohub,2013-07-24 04:52:00,
2013-07-24 00:57:00,67.5,62.4,29.84,SE,145,0.0,0.0,84,0.00,,,0.00,meteohub,2013-07-24 04:57:00,
2013-07-24 01:02:00,67.3,62.2,29.84,SE,145,0.0,0.0,84,0.00,,,0.00,meteohub,2013-07-24 05:02:00,
2013-07-24 01:07:00,67.3,62.2,29.84,SE,145,0.0,0.0,84,0.00,,,0.00,meteohub,2013-07-24 05:07:00,
2013-07-24 01:12:00,67.1,62.4,29.81,SE,145,0.0,0.0,85,0.00,,,0.00,meteohub,2013-07-24 05:12:00,
2013-07-24 01:17:00,66.9,62.2,29.81,SE,145,0.0,0.0,85,0.00,,,0.00,meteohub,2013-07-24 05:17:00,
2013-07-24 01:22:00,66.9,62.2,29.81,SE,145,0.0,0.0,85,0.00,,,0.00,meteohub,2013-07-24 05:22:00,
2013-07-24 01:27:00,66.7,62.1,29.84,ESE,122,0.0,0.0,85,0.00,,,0.00,meteohub,2013-07-24 05:27:00,
2013-07-24 01:32:00,66.7,62.4,29.84,ESE,122,0.0,4.0,86,0.00,,,0.00,meteohub,2013-07-24 05:32:00,
2013-07-24 01:37:00,66.7,62.4,29.84,ESE,122,0.0,4.0,86,0.00,,,0.00,meteohub,2013-07-24 05:37:00,
2013-07-24 01:42:00,66.7,62.4,29.81,WSW,258,0.0,0.0,86,0.00,,,0.00,meteohub,2013-07-24 05:42:00,
2013-07-24 01:47:00,66.6,62.2,29.81,NNW,348,0.0,0.0,86,0.00,,,0.00,meteohub,2013-07-24 05:47:00,
2013-07-24 01:52:00,66.4,62.1,29.81,NNW,348,0.0,0.0,86,0.00,,,0.00,meteohub,2013-07-24 05:52:00,
2013-07-24 01:57:00,66.4,62.4,29.84,ENE,78,0.0,0.0,87,0.00,,,0.00,meteohub,2013-07-24 05:57:00,
2013-07-24 02:02:00,66.2,62.2,29.84,SSE,168,0.0,0.0,87,0.00,,,0.00,meteohub,2013-07-24 06:02:00,
2013-07-24 02:07:00,66.2,62.2,29.84,South,190,0.0,3.0,87,0.00,,,0.00,meteohub,2013-07-24 06:07:00,
2013-07-24 02:12:00,66.0,62.4,29.81,South,190,0.0,3.0,88,0.00,,,0.00,meteohub,2013-07-24 06:12:00,
2013-07-24 02:17:00,65.8,62.2,29.81,South,190,0.0,3.0,88,0.00,,,0.00,meteohub,2013-07-24 06:17:00,
2013-07-24 02:22:00,65.8,62.2,29.81,South,190,0.0,0.0,88,0.00,,,0.00,meteohub,2013-07-24 06:22:00,
2013-07-24 02:27:00,65.8,62.2,29.81,South,190,0.0,0.0,88,0.00,,,0.00,meteohub,2013-07-24 06:27:00,
2013-07-24 02:32:00,65.8,62.2,29.81,South,190,0.0,0.0,88,0.00,,,0.00,meteohub,2013-07-24 06:32:00,
2013-07-24 02:37:00,65.8,62.2,29.81,South,190,0.0,0.0,88,0.00,,,0.00,meteohub,2013-07-24 06:37:00,
2013-07-24 02:47:00,65.7,62.2,29.81,South,190,0.0,0.0,89,0.00,,,0.00,meteohub,2013-07-24 06:47:00,
2013-07-24 02:52:00,65.7,62.2,29.81,South,190,0.0,0.0,89,0.00,,,0.00,meteohub,2013-07-24 06:52:00,
2013-07-24 02:57:00,65.7,62.2,29.84,South,190,0.0,0.0,89,0.00,,,0.00,meteohub,2013-07-24 06:57:00,
2013-07-24 03:02:00,65.7,62.2,29.84,South,190,0.0,3.0,89,0.00,,,0.00,meteohub,2013-07-24 07:02:00,
2013-07-24 03:07:00,65.5,62.2,29.84,North,10,0.0,3.0,89,0.00,,,0.00,meteohub,2013-07-24 07:07:00,
2013-07-24 03:12:00,65.3,62.2,29.81,North,10,0.0,0.0,90,0.00,,,0.00,meteohub,2013-07-24 07:12:00,
2013-07-24 03:17:00,65.3,62.2,29.81,NNE,32,0.0,0.0,90,0.00,,,0.00,meteohub,2013-07-24 07:17:00,
2013-07-24 03:22:00,65.1,62.1,29.81,North,10,0.0,0.0,90,0.00,,,0.00,meteohub,2013-07-24 07:22:00,
2013-07-24 03:27:00,65.1,62.1,29.81,North,10,0.0,0.0,90,0.00,,,0.00,meteohub,2013-07-24 07:27:00,
2013-07-24 03:32:00,64.9,61.9,29.81,NW,325,0.0,0.0,90,0.00,,,0.00,meteohub,2013-07-24 07:32:00,
2013-07-24 03:37:00,64.8,62.1,29.81,SW,235,0.0,3.0,91,0.00,,,0.00,meteohub,2013-07-24 07:37:00,
2013-07-24 03:42:00,64.8,62.1,29.81,WSW,258,0.0,3.0,91,0.00,,,0.00,meteohub,2013-07-24 07:42:00,
2013-07-24 03:47:00,64.8,62.1,29.81,NNE,32,0.0,0.0,91,0.00,,,0.00,meteohub,2013-07-24 07:47:00,
2013-07-24 03:52:00,64.8,62.1,29.81,NNE,32,0.0,0.0,91,0.00,,,0.00,meteohub,2013-07-24 07:52:00,
2013-07-24 03:57:00,64.6,61.9,29.81,West,280,0.0,0.0,91,0.00,,,0.00,meteohub,2013-07-24 07:57:00,
2013-07-24 04:02:00,64.6,62.2,29.81,West,280,0.0,0.0,92,0.00,,,0.00,meteohub,2013-07-24 08:02:00,
2013-07-24 04:07:00,64.6,62.2,29.81,South,190,0.0,0.0,92,0.00,,,0.00,meteohub,2013-07-24 08:07:00,
2013-07-24 04:12:00,64.6,62.2,29.81,ENE,78,0.0,0.0,92,0.00,,,0.00,meteohub,2013-07-24 08:12:00,
2013-07-24 04:17:00,64.6,62.2,29.81,ENE,78,0.0,0.0,92,0.00,,,0.00,meteohub,2013-07-24 08:17:00,
2013-07-24 04:27:00,64.6,62.6,29.81,NE,55,0.0,0.0,93,0.00,,,0.00,meteohub,2013-07-24 08:27:00,
2013-07-24 04:32:00,64.6,62.6,29.81,NE,55,0.0,0.0,93,0.00,,,0.00,meteohub,2013-07-24 08:32:00,
2013-07-24 04:37:00,64.6,62.6,29.81,NE,55,0.0,0.0,93,0.00,,,0.00,meteohub,2013-07-24 08:37:00,
2013-07-24 04:42:00,64.6,62.6,29.81,NE,55,0.0,0.0,93,0.00,,,0.00,meteohub,2013-07-24 08:42:00,
2013-07-24 04:47:00,64.6,62.6,29.81,NE,55,0.0,0.0,93,0.00,,,0.00,meteohub,2013-07-24 08:47:00,
2013-07-24 04:52:00,64.6,62.8,29.81,NE,55,0.0,0.0,94,0.00,,,0.00,meteohub,2013-07-24 08:52:00,
2013-07-24 04:57:00,64.6,62.8,29.78,NE,55,0.0,0.0,94,0.00,,,0.00,meteohub,2013-07-24 08:57:00,
2013-07-24 05:02:00,64.6,62.8,29.78,NE,55,0.0,0.0,94,0.00,,,0.00,meteohub,2013-07-24 09:02:00,
2013-07-24 05:07:00,64.6,62.8,29.78,NE,55,0.0,0.0,94,0.00,,,0.00,meteohub,2013-07-24 09:07:00,
2013-07-24 05:12:00,64.6,62.8,29.81,SW,235,0.0,0.0,94,0.00,,,0.00,meteohub,2013-07-24 09:12:00,
2013-07-24 05:17:00,64.6,63.1,29.81,SE,145,0.0,0.0,95,0.00,,,0.00,meteohub,2013-07-24 09:17:00,
2013-07-24 05:22:00,64.8,63.3,29.81,SE,145,0.0,0.0,95,0.00,,,0.00,meteohub,2013-07-24 09:22:00,
2013-07-24 05:27:00,64.6,63.1,29.81,South,190,0.0,0.0,95,0.00,,,0.00,meteohub,2013-07-24 09:27:00,
2013-07-24 05:32:00,64.6,63.1,29.81,North,10,0.0,3.0,95,0.00,,,0.00,meteohub,2013-07-24 09:32:00,
2013-07-24 05:37:00,64.4,63.0,29.81,NNW,348,4.0,4.0,95,0.00,,,0.00,meteohub,2013-07-24 09:37:00,
2013-07-24 05:42:00,64.4,63.0,29.81,SSW,212,0.0,5.0,95,0.00,,,0.00,meteohub,2013-07-24 09:42:00,
2013-07-24 05:47:00,64.2,62.8,29.81,SSE,168,0.0,5.0,95,0.00,,,0.00,meteohub,2013-07-24 09:47:00,
2013-07-24 05:52:00,64.4,63.0,29.81,SSE,168,3.0,5.0,95,0.00,,,0.00,meteohub,2013-07-24 09:52:00,
2013-07-24 05:57:00,64.4,63.0,29.81,South,190,0.0,4.0,95,0.00,,,0.00,meteohub,2013-07-24 09:57:00,
2013-07-24 06:02:00,64.4,63.0,29.81,SSE,168,0.0,4.0,95,0.00,,,0.00,meteohub,2013-07-24 10:02:00,
2013-07-24 06:07:00,64.4,63.0,29.81,SE,145,0.0,4.0,95,0.00,,,0.00,meteohub,2013-07-24 10:07:00,
2013-07-24 06:12:00,64.4,63.3,29.81,East,100,0.0,2.0,96,0.00,,,0.00,meteohub,2013-07-24 10:12:00,
2013-07-24 06:17:00,64.4,63.3,29.81,SW,235,0.0,4.0,96,0.00,,,0.00,meteohub,2013-07-24 10:17:00,
2013-07-24 06:22:00,64.6,63.5,29.81,ESE,122,0.0,4.0,96,0.00,,,0.00,meteohub,2013-07-24 10:22:00,
2013-07-24 06:27:00,64.6,63.5,29.78,ESE,122,0.0,4.0,96,0.00,,,0.00,meteohub,2013-07-24 10:27:00,
2013-07-24 06:32:00,64.6,63.5,29.78,SE,145,3.0,4.0,96,0.00,,,0.00,meteohub,2013-07-24 10:32:00,
2013-07-24 06:37:00,64.8,63.7,29.78,SSE,168,4.0,4.0,96,0.00,,,0.00,meteohub,2013-07-24 10:37:00,
2013-07-24 06:42:00,64.8,63.7,29.81,SE,145,0.0,5.0,96,0.00,,,0.00,meteohub,2013-07-24 10:42:00,
2013-07-24 06:47:00,64.8,63.7,29.81,South,190,0.0,5.0,96,0.00,,,0.00,meteohub,2013-07-24 10:47:00,
2013-07-24 06:52:00,64.9,63.9,29.81,SE,145,0.0,5.0,96,0.00,,,0.00,meteohub,2013-07-24 10:52:00,
2013-07-24 06:57:00,64.9,63.9,29.81,SSE,168,0.0,0.0,96,0.00,,,0.00,meteohub,2013-07-24 10:57:00,
2013-07-24 07:02:00,65.1,64.0,29.81,ESE,122,0.0,0.0,96,0.00,,,0.00,meteohub,2013-07-24 11:02:00,
2013-07-24 07:07:00,65.1,64.0,29.81,ESE,122,0.0,5.0,96,0.00,,,0.00,meteohub,2013-07-24 11:07:00,
2013-07-24 07:12:00,65.3,64.0,29.81,SSE,168,0.0,5.0,96,0.00,,,0.00,meteohub,2013-07-24 11:12:00,
2013-07-24 07:17:00,65.3,64.4,29.81,SE,145,0.0,5.0,97,0.00,,,0.00,meteohub,2013-07-24 11:17:00,
2013-07-24 07:22:00,65.5,64.6,29.81,ESE,122,0.0,5.0,97,0.00,,,0.00,meteohub,2013-07-24 11:22:00,
2013-07-24 07:27:00,65.7,64.8,29.81,ESE,122,0.0,3.0,97,0.00,,,0.00,meteohub,2013-07-24 11:27:00,
2013-07-24 07:32:00,65.7,64.8,29.81,ESE,122,0.0,3.0,97,0.00,,,0.00,meteohub,2013-07-24 11:32:00,
2013-07-24 07:37:00,65.8,64.9,29.81,ESE,122,0.0,0.0,97,0.00,,,0.00,meteohub,2013-07-24 11:37:00,
2013-07-24 07:42:00,65.8,64.9,29.81,SSW,212,0.0,5.0,97,0.00,,,0.00,meteohub,2013-07-24 11:42:00,
2013-07-24 07:47:00,65.8,64.9,29.81,SE,145,0.0,5.0,97,0.00,,,0.00,meteohub,2013-07-24 11:47:00,
2013-07-24 07:52:00,66.0,65.1,29.81,SE,145,0.0,5.0,97,0.00,,,0.00,meteohub,2013-07-24 11:52:00,
2013-07-24 07:57:00,66.0,65.1,29.84,SSE,168,0.0,3.0,97,0.00,,,0.00,meteohub,2013-07-24 11:57:00,
2013-07-24 08:02:00,66.0,65.1,29.84,SE,145,0.0,3.0,97,0.00,,,0.00,meteohub,2013-07-24 12:02:00,
2013-07-24 08:07:00,66.0,65.1,29.84,ENE,78,0.0,3.0,97,0.00,,,0.00,meteohub,2013-07-24 12:07:00,
2013-07-24 08:12:00,66.0,64.8,29.84,East,100,0.0,0.0,96,0.00,,,0.00,meteohub,2013-07-24 12:12:00,
2013-07-24 08:17:00,66.0,64.8,29.84,NW,325,0.0,3.0,96,0.00,,,0.00,meteohub,2013-07-24 12:17:00,
2013-07-24 08:22:00,66.2,64.9,29.84,NE,55,0.0,3.0,96,0.00,,,0.00,meteohub,2013-07-24 12:22:00,
2013-07-24 08:27:00,66.2,64.9,29.84,ENE,78,0.0,3.0,96,0.00,,,0.00,meteohub,2013-07-24 12:27:00,
2013-07-24 08:37:00,66.4,65.1,29.84,North,10,0.0,4.0,96,0.00,,,0.00,meteohub,2013-07-24 12:37:00,
2013-07-24 08:42:00,66.6,65.3,29.84,SE,145,0.0,4.0,96,0.00,,,0.00,meteohub,2013-07-24 12:42:00,
2013-07-24 08:47:00,66.9,65.7,29.84,SSW,212,0.0,4.0,96,0.00,,,0.00,meteohub,2013-07-24 12:47:00,
2013-07-24 08:52:00,67.1,65.7,29.84,NNE,32,2.0,5.0,95,0.00,,,0.00,meteohub,2013-07-24 12:52:00,
2013-07-24 08:57:00,67.5,65.7,29.84,NNW,348,5.0,5.0,94,0.00,,,0.00,meteohub,2013-07-24 12:57:00,
2013-07-24 09:02:00,67.6,65.8,29.84,North,10,6.0,6.0,94,0.00,,,0.00,meteohub,2013-07-24 13:02:00,
2013-07-24 09:07:00,67.8,65.5,29.84,NNW,348,0.0,8.0,92,0.00,,,0.00,meteohub,2013-07-24 13:07:00,
2013-07-24 09:17:00,68.7,66.0,29.84,NNW,348,3.0,8.0,91,0.00,,,0.00,meteohub,2013-07-24 13:17:00,
2013-07-24 09:22:00,68.9,65.8,29.84,NNE,32,6.0,11.0,90,0.00,,,0.00,meteohub,2013-07-24 13:22:00,
2013-07-24 09:32:00,69.6,65.8,29.84,North,10,0.0,11.0,88,0.00,,,0.00,meteohub,2013-07-24 13:32:00,
2013-07-24 09:37:00,69.8,65.5,29.84,NW,325,6.0,8.0,86,0.00,,,0.00,meteohub,2013-07-24 13:37:00,
2013-07-24 09:42:00,69.8,65.1,29.84,West,280,0.0,8.0,85,0.00,,,0.00,meteohub,2013-07-24 13:42:00,
2013-07-24 09:47:00,70.5,65.8,29.84,SW,235,7.0,9.0,85,0.00,,,0.00,meteohub,2013-07-24 13:47:00,
2013-07-24 09:52:00,70.7,65.7,29.84,SSE,168,5.0,9.0,84,0.00,,,0.00,meteohub,2013-07-24 13:52:00,
2013-07-24 09:57:00,70.9,65.8,29.84,SSE,168,2.0,9.0,84,0.00,,,0.00,meteohub,2013-07-24 13:57:00,
2013-07-24 10:02:00,71.1,66.7,29.84,SSE,168,2.0,8.0,86,0.00,,,0.00,meteohub,2013-07-24 14:02:00,
2013-07-24 10:07:00,71.1,66.4,29.84,NW,325,0.0,8.0,85,0.00,,,0.00,meteohub,2013-07-24 14:07:00,
2013-07-24 10:12:00,71.2,65.8,29.84,North,10,2.0,6.0,83,0.00,,,0.00,meteohub,2013-07-24 14:12:00,
2013-07-24 10:17:00,71.2,65.8,29.84,SW,235,0.0,8.0,83,0.00,,,0.00,meteohub,2013-07-24 14:17:00,
2013-07-24 10:22:00,71.4,66.4,29.84,SSW,212,4.0,8.0,84,0.00,,,0.00,meteohub,2013-07-24 14:22:00,
2013-07-24 10:27:00,71.6,65.8,29.84,ENE,78,3.0,8.0,82,0.00,,,0.00,meteohub,2013-07-24 14:27:00,
2013-07-24 10:32:00,71.6,65.8,29.84,NNW,348,4.0,8.0,82,0.00,,,0.00,meteohub,2013-07-24 14:32:00,
2013-07-24 10:37:00,71.6,65.5,29.84,WNW,302,5.0,8.0,81,0.00,,,0.00,meteohub,2013-07-24 14:37:00,
2013-07-24 10:47:00,72.7,66.6,29.87,South,190,3.0,8.0,81,0.00,,,0.00,meteohub,2013-07-24 14:47:00,
2013-07-24 10:52:00,72.7,65.8,29.87,SSW,212,5.0,8.0,79,0.00,,,0.00,meteohub,2013-07-24 14:52:00,
2013-07-24 10:57:00,73.2,66.4,29.87,SSW,212,3.0,9.0,79,0.00,,,0.00,meteohub,2013-07-24 14:57:00,
2013-07-24 11:02:00,73.2,66.0,29.87,South,190,6.0,9.0,78,0.00,,,0.00,meteohub,2013-07-24 15:02:00,
2013-07-24 11:07:00,73.4,65.7,29.87,South,190,9.0,9.0,77,0.00,,,0.00,meteohub,2013-07-24 15:07:00,
2013-07-24 11:12:00,73.4,66.2,29.87,NNE,32,0.0,13.0,78,0.00,,,0.00,meteohub,2013-07-24 15:12:00,
2013-07-24 11:22:00,73.6,65.5,29.87,South,190,3.0,13.0,76,0.00,,,0.00,meteohub,2013-07-24 15:22:00,
2013-07-24 11:27:00,73.6,64.8,29.87,NNE,32,4.0,8.0,74,0.00,,,0.00,meteohub,2013-07-24 15:27:00,
2013-07-24 11:32:00,73.8,65.3,29.87,WNW,302,8.0,8.0,75,0.00,,,0.00,meteohub,2013-07-24 15:32:00,
2013-07-24 11:37:00,73.9,65.1,29.87,ENE,78,2.0,8.0,74,0.00,,,0.00,meteohub,2013-07-24 15:37:00,
2013-07-24 11:42:00,73.8,63.7,29.87,NNE,32,6.0,8.0,71,0.00,,,0.00,meteohub,2013-07-24 15:42:00,
2013-07-24 11:47:00,73.9,63.5,29.87,WSW,258,5.0,8.0,70,0.00,,,0.00,meteohub,2013-07-24 15:47:00,
2013-07-24 11:52:00,73.9,63.5,29.87,NNE,32,6.0,8.0,70,0.00,,,0.00,meteohub,2013-07-24 15:52:00,
2013-07-24 11:57:00,74.1,63.7,29.87,WNW,302,3.0,14.0,70,0.00,,,0.00,meteohub,2013-07-24 15:57:00,
2013-07-24 12:02:00,74.3,64.2,29.87,North,10,2.0,14.0,71,0.00,,,0.00,meteohub,2013-07-24 16:02:00,
2013-07-24 12:07:00,74.8,64.8,29.87,South,190,6.0,14.0,71,0.00,,,0.00,meteohub,2013-07-24 16:07:00,
2013-07-24 12:12:00,75.0,64.9,29.87,NNW,348,3.0,11.0,71,0.00,,,0.00,meteohub,2013-07-24 16:12:00,
2013-07-24 12:17:00,75.2,64.8,29.87,WNW,302,6.0,11.0,70,0.00,,,0.00,meteohub,2013-07-24 16:17:00,
2013-07-24 12:22:00,75.2,63.9,29.87,WSW,258,6.0,11.0,68,0.00,,,0.00,meteohub,2013-07-24 16:22:00,
2013-07-24 12:27:00,75.2,63.1,29.87,WNW,302,4.0,9.0,66,0.00,,,0.00,meteohub,2013-07-24 16:27:00,
2013-07-24 12:32:00,75.4,62.8,29.87,WNW,302,2.0,13.0,65,0.00,,,0.00,meteohub,2013-07-24 16:32:00,
2013-07-24 12:37:00,75.7,64.0,29.87,SSW,212,3.0,13.0,67,0.00,,,0.00,meteohub,2013-07-24 16:37:00,
2013-07-24 12:42:00,76.5,64.2,29.87,SE,145,4.0,12.0,66,0.00,,,0.00,meteohub,2013-07-24 16:42:00,
2013-07-24 12:47:00,76.6,63.5,29.87,SSW,212,11.0,12.0,64,0.00,,,0.00,meteohub,2013-07-24 16:47:00,
2013-07-24 12:57:00,76.8,62.4,29.87,SSE,168,6.0,15.0,61,0.00,,,0.00,meteohub,2013-07-24 16:57:00,
2013-07-24 13:02:00,76.3,59.0,29.87,NNW,348,11.0,15.0,55,0.00,,,0.00,meteohub,2013-07-24 17:02:00,
2013-07-24 13:07:00,76.6,59.2,29.87,NNW,348,4.0,19.0,55,0.00,,,0.00,meteohub,2013-07-24 17:07:00,
2013-07-24 13:12:00,76.8,58.5,29.87,West,280,8.0,19.0,53,0.00,,,0.00,meteohub,2013-07-24 17:12:00,
2013-07-24 13:22:00,76.8,59.9,29.87,NE,55,5.0,15.0,56,0.00,,,0.00,meteohub,2013-07-24 17:22:00,
2013-07-24 13:27:00,77.4,59.4,29.87,WSW,258,5.0,13.0,54,0.00,,,0.00,meteohub,2013-07-24 17:27:00,
2013-07-24 13:32:00,77.5,58.5,29.87,North,10,7.0,14.0,52,0.00,,,0.00,meteohub,2013-07-24 17:32:00,
2013-07-24 13:37:00,77.5,59.5,29.87,North,10,6.0,14.0,54,0.00,,,0.00,meteohub,2013-07-24 17:37:00,
2013-07-24 13:42:00,77.5,59.0,29.87,NNW,348,4.0,14.0,53,0.00,,,0.00,meteohub,2013-07-24 17:42:00,
2013-07-24 13:47:00,78.3,63.3,29.87,WSW,258,3.0,14.0,60,0.00,,,0.00,meteohub,2013-07-24 17:47:00,
2013-07-24 13:52:00,78.4,58.8,29.87,North,10,3.0,12.0,51,0.00,,,0.00,meteohub,2013-07-24 17:52:00,
2013-07-24 14:02:00,78.4,58.3,29.84,North,10,3.0,13.0,50,0.00,,,0.00,meteohub,2013-07-24 18:02:00,
2013-07-24 14:07:00,78.1,57.9,29.84,East,100,11.0,13.0,50,0.00,,,0.00,meteohub,2013-07-24 18:07:00,
2013-07-24 14:12:00,77.9,58.8,29.84,WNW,302,2.0,13.0,52,0.00,,,0.00,meteohub,2013-07-24 18:12:00,
2013-07-24 14:17:00,77.5,59.5,29.84,SSW,212,8.0,13.0,54,0.00,,,0.00,meteohub,2013-07-24 18:17:00,
2013-07-24 14:27:00,77.7,60.3,29.87,South,190,0.0,8.0,55,0.00,,,0.00,meteohub,2013-07-24 18:27:00,
2013-07-24 14:32:00,77.5,61.2,29.87,ESE,122,5.0,8.0,57,0.00,,,0.00,meteohub,2013-07-24 18:32:00,
2013-07-24 14:37:00,77.4,62.4,29.87,SW,235,0.0,5.0,60,0.00,,,0.00,meteohub,2013-07-24 18:37:00,
2013-07-24 14:42:00,77.5,63.0,29.84,South,190,0.0,5.0,61,0.00,,,0.00,meteohub,2013-07-24 18:42:00,
2013-07-24 14:47:00,78.1,63.5,29.84,South,190,3.0,5.0,61,0.00,,,0.00,meteohub,2013-07-24 18:47:00,
2013-07-24 14:57:00,78.8,65.1,29.84,SSE,168,2.0,5.0,63,0.00,,,0.00,meteohub,2013-07-24 18:57:00,
2013-07-24 15:02:00,79.2,63.1,29.84,SW,235,2.0,5.0,58,0.00,,,0.00,meteohub,2013-07-24 19:02:00,
2013-07-24 15:07:00,80.2,64.0,29.84,SSW,212,7.0,7.0,58,0.00,,,0.00,meteohub,2013-07-24 19:07:00,
2013-07-24 15:12:00,80.6,62.4,29.84,NNW,348,6.0,9.0,54,0.00,,,0.00,meteohub,2013-07-24 19:12:00,
2013-07-24 15:17:00,80.8,61.5,29.84,WSW,258,6.0,9.0,52,0.00,,,0.00,meteohub,2013-07-24 19:17:00,
2013-07-24 15:22:00,80.2,57.6,29.84,NE,55,4.0,12.0,46,0.00,,,0.00,meteohub,2013-07-24 19:22:00,
2013-07-24 15:32:00,81.0,59.4,29.84,NNE,32,0.0,15.0,48,0.00,,,0.00,meteohub,2013-07-24 19:32:00,
2013-07-24 15:42:00,80.6,57.4,29.84,NW,325,8.0,17.0,45,0.00,,,0.00,meteohub,2013-07-24 19:42:00,
2013-07-24 15:47:00,80.2,56.3,29.84,NW,325,6.0,17.0,44,0.00,,,0.00,meteohub,2013-07-24 19:47:00,
2013-07-24 15:52:00,80.2,56.3,29.84,NNW,348,3.0,17.0,44,0.00,,,0.00,meteohub,2013-07-24 19:52:00,
2013-07-24 15:57:00,79.3,56.1,29.84,NNW,348,4.0,14.0,45,0.00,,,0.00,meteohub,2013-07-24 19:57:00,
2013-07-24 16:02:00,78.8,55.8,29.84,SE,145,5.0,14.0,45,0.00,,,0.00,meteohub,2013-07-24 20:02:00,
2013-07-24 16:07:00,78.6,55.6,29.84,NNE,32,6.0,10.0,45,0.00,,,0.00,meteohub,2013-07-24 20:07:00,
2013-07-24 16:17:00,79.3,57.4,29.84,NNW,348,15.0,15.0,47,0.00,,,0.00,meteohub,2013-07-24 20:17:00,
2013-07-24 16:22:00,79.0,56.5,29.84,NNW,348,11.0,17.0,46,0.00,,,0.00,meteohub,2013-07-24 20:22:00,
2013-07-24 16:27:00,79.3,58.5,29.84,South,190,8.0,17.0,49,0.00,,,0.00,meteohub,2013-07-24 20:27:00,
2013-07-24 16:32:00,79.9,60.1,29.84,North,10,6.0,17.0,51,0.00,,,0.00,meteohub,2013-07-24 20:32:00,
2013-07-24 16:37:00,80.4,60.1,29.84,WSW,258,8.0,13.0,50,0.00,,,0.00,meteohub,2013-07-24 20:37:00,
2013-07-24 16:47:00,78.1,56.8,29.84,WNW,302,5.0,19.0,48,0.00,,,0.00,meteohub,2013-07-24 20:47:00,
2013-07-24 16:52:00,77.5,59.0,29.84,West,280,11.0,19.0,53,0.00,,,0.00,meteohub,2013-07-24 20:52:00,
2013-07-24 16:57:00,77.9,58.3,29.84,SSW,212,3.0,15.0,51,0.00,,,0.00,meteohub,2013-07-24 20:57:00,
2013-07-24 17:07:00,79.3,58.5,29.84,SSW,212,4.0,13.0,49,0.00,,,0.00,meteohub,2013-07-24 21:07:00,
2013-07-24 17:12:00,79.7,57.7,29.87,WNW,302,12.0,13.0,47,0.00,,,0.00,meteohub,2013-07-24 21:12:00,
2013-07-24 17:17:00,79.5,57.0,29.87,West,280,6.0,17.0,46,0.00,,,0.00,meteohub,2013-07-24 21:17:00,
2013-07-24 17:22:00,79.5,56.3,29.87,NNW,348,12.0,19.0,45,0.00,,,0.00,meteohub,2013-07-24 21:22:00,
2013-07-24 17:27:00,79.5,55.8,29.87,NNW,348,13.0,19.0,44,0.00,,,0.00,meteohub,2013-07-24 21:27:00,
2013-07-24 17:32:00,79.5,57.0,29.87,WNW,302,9.0,19.0,46,0.00,,,0.00,meteohub,2013-07-24 21:32:00,
2013-07-24 17:37:00,79.2,55.9,29.87,NNW,348,9.0,15.0,45,0.00,,,0.00,meteohub,2013-07-24 21:37:00,
2013-07-24 17:42:00,78.6,56.1,29.84,North,10,8.0,15.0,46,0.00,,,0.00,meteohub,2013-07-24 21:42:00,
2013-07-24 17:47:00,78.1,55.6,29.84,WSW,258,5.0,15.0,46,0.00,,,0.00,meteohub,2013-07-24 21:47:00,
2013-07-24 17:52:00,77.9,55.4,29.84,NW,325,12.0,16.0,46,0.00,,,0.00,meteohub,2013-07-24 21:52:00,
2013-07-24 17:57:00,77.5,54.5,29.87,NNW,348,11.0,16.0,45,0.00,,,0.00,meteohub,2013-07-24 21:57:00,
2013-07-24 18:07:00,77.0,54.0,29.87,NNW,348,7.0,17.0,45,0.00,,,0.00,meteohub,2013-07-24 22:07:00,
2013-07-24 18:12:00,76.8,54.0,29.84,NNW,348,8.0,19.0,45,0.00,,,0.00,meteohub,2013-07-24 22:12:00,
2013-07-24 18:17:00,76.8,54.5,29.84,NNW,348,13.0,21.0,46,0.00,,,0.00,meteohub,2013-07-24 22:17:00,
2013-07-24 18:22:00,76.8,54.5,29.84,NNE,32,7.0,21.0,46,0.00,,,0.00,meteohub,2013-07-24 22:22:00,
2013-07-24 18:27:00,76.8,55.0,29.84,NW,325,6.0,21.0,47,0.00,,,0.00,meteohub,2013-07-24 22:27:00,
2013-07-24 18:32:00,76.6,56.7,29.84,WNW,302,8.0,17.0,50,0.00,,,0.00,meteohub,2013-07-24 22:32:00,
2013-07-24 18:37:00,76.8,56.3,29.84,North,10,5.0,17.0,49,0.00,,,0.00,meteohub,2013-07-24 22:37:00,
2013-07-24 18:47:00,76.1,55.0,29.84,NNW,348,15.0,15.0,48,0.00,,,0.00,meteohub,2013-07-24 22:47:00,
2013-07-24 18:52:00,76.1,55.6,29.84,NNW,348,8.0,15.0,49,0.00,,,0.00,meteohub,2013-07-24 22:52:00,
2013-07-24 18:57:00,75.7,55.8,29.84,North,10,3.0,15.0,50,0.00,,,0.00,meteohub,2013-07-24 22:57:00,
2013-07-24 19:07:00,75.0,54.5,29.84,NNW,348,7.0,19.0,49,0.00,,,0.00,meteohub,2013-07-24 23:07:00,
2013-07-24 19:17:00,74.8,56.5,29.87,South,190,0.0,19.0,53,0.00,,,0.00,meteohub,2013-07-24 23:17:00,
2013-07-24 19:22:00,74.8,57.0,29.87,SSW,212,3.0,11.0,54,0.00,,,0.00,meteohub,2013-07-24 23:22:00,
2013-07-24 19:27:00,74.3,56.1,29.87,South,190,5.0,7.0,53,0.00,,,0.00,meteohub,2013-07-24 23:27:00,
2013-07-24 19:32:00,73.9,57.2,29.87,WNW,302,0.0,7.0,56,0.00,,,0.00,meteohub,2013-07-24 23:32:00,
2013-07-24 19:37:00,73.9,56.3,29.87,SW,235,5.0,7.0,54,0.00,,,0.00,meteohub,2013-07-24 23:37:00,
2013-07-24 19:47:00,73.2,57.0,29.87,West,280,5.0,6.0,57,0.00,,,0.00,meteohub,2013-07-24 23:47:00,
2013-07-24 19:52:00,73.2,57.0,29.87,SSW,212,6.0,8.0,57,0.00,,,0.00,meteohub,2013-07-24 23:52:00,
2013-07-24 19:57:00,72.9,56.7,29.87,ESE,122,4.0,8.0,57,0.00,,,0.00,meteohub,2013-07-24 23:57:00,
2013-07-24 20:07:00,72.1,57.6,29.87,SSE,168,3.0,8.0,60,0.00,,,0.00,meteohub,2013-07-25 00:07:00,
2013-07-24 20:12:00,72.0,57.4,29.87,ESE,122,4.0,8.0,60,0.00,,,0.00,meteohub,2013-07-25 00:12:00,
2013-07-24 20:17:00,71.8,57.2,29.87,ESE,122,5.0,6.0,60,0.00,,,0.00,meteohub,2013-07-25 00:17:00,
2013-07-24 20:22:00,71.6,57.4,29.87,SE,145,5.0,7.0,61,0.00,,,0.00,meteohub,2013-07-25 00:22:00,
2013-07-24 20:27:00,71.8,58.1,29.87,SE,145,3.0,7.0,62,0.00,,,0.00,meteohub,2013-07-25 00:27:00,
2013-07-24 20:32:00,71.4,58.1,29.87,SSE,168,6.0,6.0,63,0.00,,,0.00,meteohub,2013-07-25 00:32:00,
2013-07-24 20:37:00,71.2,57.9,29.87,ESE,122,5.0,6.0,63,0.00,,,0.00,meteohub,2013-07-25 00:37:00,
2013-07-24 20:47:00,70.9,58.1,29.87,South,190,6.0,6.0,64,0.00,,,0.00,meteohub,2013-07-25 00:47:00,
2013-07-24 20:52:00,70.9,58.1,29.87,ESE,122,4.0,6.0,64,0.00,,,0.00,meteohub,2013-07-25 00:52:00,
2013-07-24 20:57:00,70.7,57.9,29.90,SE,145,0.0,6.0,64,0.00,,,0.00,meteohub,2013-07-25 00:57:00,
2013-07-24 21:07:00,70.3,58.1,29.90,South,190,2.0,5.0,65,0.00,,,0.00,meteohub,2013-07-25 01:07:00,
2013-07-24 21:12:00,70.2,57.9,29.90,ESE,122,3.0,5.0,65,0.00,,,0.00,meteohub,2013-07-25 01:12:00,
2013-07-24 21:17:00,70.2,57.9,29.90,SE,145,0.0,5.0,65,0.00,,,0.00,meteohub,2013-07-25 01:17:00,
2013-07-24 21:22:00,70.0,57.7,29.90,SE,145,3.0,4.0,65,0.00,,,0.00,meteohub,2013-07-25 01:22:00,
2013-07-24 21:27:00,69.8,57.6,29.90,ESE,122,4.0,4.0,65,0.00,,,0.00,meteohub,2013-07-25 01:27:00,
2013-07-24 21:32:00,69.8,57.9,29.90,ESE,122,2.0,4.0,66,0.00,,,0.00,meteohub,2013-07-25 01:32:00,
2013-07-24 21:37:00,69.8,57.9,29.90,SSE,168,0.0,4.0,66,0.00,,,0.00,meteohub,2013-07-25 01:37:00,
2013-07-24 21:42:00,69.4,57.6,29.93,South,190,3.0,4.0,66,0.00,,,0.00,meteohub,2013-07-25 01:42:00,
2013-07-24 21:47:00,69.3,57.0,29.93,SSE,168,3.0,5.0,65,0.00,,,0.00,meteohub,2013-07-25 01:47:00,
2013-07-24 21:52:00,69.3,57.4,29.93,South,190,5.0,5.0,66,0.00,,,0.00,meteohub,2013-07-25 01:52:00,
2013-07-24 22:02:00,69.1,57.7,29.93,ESE,122,3.0,7.0,67,0.00,,,0.00,meteohub,2013-07-25 02:02:00,
2013-07-24 22:12:00,68.9,57.9,29.96,SSE,168,3.0,4.0,68,0.00,,,0.00,meteohub,2013-07-25 02:12:00,
2013-07-24 22:17:00,68.9,57.9,29.96,SE,145,2.0,4.0,68,0.00,,,0.00,meteohub,2013-07-25 02:17:00,
2013-07-24 22:22:00,68.7,57.7,29.96,SE,145,3.0,5.0,68,0.00,,,0.00,meteohub,2013-07-25 02:22:00,
2013-07-24 22:27:00,68.5,57.2,29.90,South,190,5.0,5.0,67,0.00,,,0.00,meteohub,2013-07-25 02:27:00,
2013-07-24 22:32:00,68.4,57.0,29.90,SE,145,3.0,6.0,67,0.00,,,0.00,meteohub,2013-07-25 02:32:00,
2013-07-24 22:37:00,68.2,57.2,29.90,ESE,122,0.0,6.0,68,0.00,,,0.00,meteohub,2013-07-25 02:37:00,
2013-07-24 22:42:00,68.2,57.2,29.93,SSE,168,0.0,6.0,68,0.00,,,0.00,meteohub,2013-07-25 02:42:00,
2013-07-24 22:47:00,68.0,57.0,29.93,SE,145,0.0,3.0,68,0.00,,,0.00,meteohub,2013-07-25 02:47:00,
2013-07-24 22:52:00,67.8,57.2,29.93,SE,145,0.0,0.0,69,0.00,,,0.00,meteohub,2013-07-25 02:52:00,
2013-07-24 23:02:00,67.6,57.2,29.93,SE,145,3.0,4.0,69,0.00,,,0.00,meteohub,2013-07-25 03:02:00,
2013-07-24 23:07:00,67.5,57.0,29.93,SSE,168,0.0,4.0,69,0.00,,,0.00,meteohub,2013-07-25 03:07:00,
2013-07-24 23:12:00,67.3,56.3,29.93,ESE,122,0.0,4.0,68,0.00,,,0.00,meteohub,2013-07-25 03:12:00,
2013-07-24 23:17:00,67.1,56.7,29.93,SE,145,0.0,4.0,69,0.00,,,0.00,meteohub,2013-07-25 03:17:00,
2013-07-24 23:22:00,66.9,56.5,29.93,SE,145,0.0,2.0,69,0.00,,,0.00,meteohub,2013-07-25 03:22:00,
2013-07-24 23:32:00,66.7,56.3,29.90,ESE,122,0.0,4.0,69,0.00,,,0.00,meteohub,2013-07-25 03:32:00,
2013-07-24 23:37:00,66.7,56.3,29.90,SE,145,0.0,4.0,69,0.00,,,0.00,meteohub,2013-07-25 03:37:00,
2013-07-24 23:42:00,66.6,56.1,29.93,SE,145,0.0,4.0,69,0.00,,,0.00,meteohub,2013-07-25 03:42:00,
2013-07-24 23:47:00,66.6,56.5,29.93,ESE,122,0.0,0.0,70,0.00,,,0.00,meteohub,2013-07-25 03:47:00,
2013-07-24 23:52:00,66.4,56.3,29.93,ESE,122,0.0,0.0,70,0.00,,,0.00,meteohub,2013-07-25 03:52:00,
2013-07-24 23:57:00,66.4,55.9,29.93,ESE,122,0.0,0.0,69,0.00,,,0.00,meteohub,2013-07-25 03:57:00,